Overview Statistics Trail Chart Weather Telemetry Raw packets
 

This is the latest recevied weather packets stored in our database for station/object KC4GS-13. If no packets are shown the sender has not sent any weather packets the latest 10 day(s).

<< 8 9 10 11 12 13 14 >>
Time Temp. Humidity Pressure Rain* Wind** Luminosity Snow
1788564752 32.78° C 59% 1015.2 hPa 0 mm - 9 W/m² -
1788564449 32.78° C 59% 1015.1 hPa 0 mm - 11 W/m² -
1788564145 33.33° C 58% 1015.1 hPa 0 mm - 13 W/m² -
1788563840 33.33° C 58% 1014.8 hPa 0 mm - 15 W/m² -
1788563536 33.33° C 57% 1015 hPa 0 mm - 17 W/m² -
1788563234 33.33° C 56% 1015 hPa 0 mm - 19 W/m² -
1788562924 33.33° C 56% 1014.9 hPa 0 mm - 21 W/m² -
1788562623 33.89° C 56% 1014.9 hPa 0 mm - 23 W/m² -
1788562316 33.89° C 55% 1015 hPa 0 mm - 24 W/m² -
1788562011 33.89° C 54% 1015.1 hPa 0 mm - 26 W/m² -
1788561710 34.44° C 54% 1015.2 hPa 0 mm - 28 W/m² -
1788561404 34.44° C 54% 1015.2 hPa 0 mm - 30 W/m² -
1788561099 35° C 52% 1015.1 hPa 0 mm - 32 W/m² -
1788560795 35° C 52% 1015.1 hPa 0 mm - 32 W/m² -
1788560491 35° C 52% 1015.2 hPa 0 mm - 35 W/m² -
1788560190 35.56° C 52% 1015 hPa 0 mm - 47 W/m² -
1788559886 36.11° C 49% 1015.2 hPa 0 mm - 225 W/m² -
1788559581 36.11° C 48% 1015.1 hPa 0 mm - 240 W/m² -
1788559275 36.11° C 48% 1015.1 hPa 0 mm - 275 W/m² -
1788558969 36.11° C 47% 1015.4 hPa 0 mm - 292 W/m² -
1788558666 36.11° C 48% 1015.3 hPa 0 mm - 309 W/m² -
1788558360 36.67° C 48% 1015.2 hPa 0 mm - 310 W/m² -
1788558056 36.67° C 47% 1015 hPa 0 mm - 308 W/m² -
1788557754 36.67° C 48% 1015 hPa 0 mm - 326 W/m² -
1788557451 36.67° C 48% 1014.9 hPa 0 mm - 347 W/m² -

* Rain latest hour (hover to see other rain measurements)
** Current wind speed in m/s (hover to see current wind gust speed)